Location: Krakow
(50.0212°N, 19.9423°E)
Time: 21:56:13
(UTC+02:00)

BUGSAT 1 - Pass Details

Date: 26 April 2024
Orbit: 531 x 580 km, 98.1° (Epoch: 23 May)

Event Time Altitude Azimuth Distance (km) Brightness Sun altitude
Rises 20:28:54 0° 179° (S) 2,720 ? -6.1°
Reaches altitude 10° 20:31:04 10° 186° (S) 1,839 ? -6.4°
Maximum altitude 20:34:55 46° 261° (W) 763 ? -7.0°
Drops below altitude 10° 20:38:51 10° 335° (NNW) 1,884 ? -7.5°
Sets 20:41:06 0° 341° (NNW) 2,795 ? -7.8°
